Location: La Silve
(44.2414°N, 5.8889°E)
Time: 05:18:35
(UTC+00:00)

USA 267 - Pass Details

Date: 01 December 2020
Orbit: 1100 x 1107 km, 123.0° (Epoch: 18 January)

Event Time Altitude Azimuth Distance (km) Brightness Sun altitude
Exits shadow 19:21:25 57° 313° (NW) 1,282 3.6 -35.6°
Drops below altitude 10° 19:26:27 10° 310° (NW) 2,966 6.0 -36.5°
Sets 19:28:56 0° 311° (NW) 3,928 6.8 -36.9°
